Regional Weather Roundup
Issued by NWS Newport/Morehead, NC

Current Version | Previous Version | Text Only | Print | Product List | Glossary Off
Versions: 1 2 3 4 5 6 7 8 9 10 11 12 13 14 15 16 17 18 19 20 21 22 23 24 25 26 27 28 29 30 31 32 33 34 35 36 37 38 39 40 41 42 43 44 45 46 47 48 49 50
000 ASUS42 KMHX 242110 RWRMHX WEATHER ROUNDUP FOR EASTERN NORTH CAROLINA NATIONAL WEATHER SERVICE NEWPORT/MOREHEAD CITY NC 400 PM EST SAT JAN 24 2015 NOTE: "FAIR" INDICATES FEW OR NO CLOUDS BELOW 12,000 FEET WITH NO SIGNIFICANT WEATHER AND/OR OBSTRUCTIONS TO VISIBILITY NCZ015>017-031-032-045>047-102-103-242200- NORTH COAST CITY SKY/WX TMP DP RH WIND PRES REMARKS EDENTON CLOUDY 42 39 88 NW12G17 29.58R ELIZABETH CITY CLOUDY 41 38 89 NW16G22 29.55R KITTY HAWK CLOUDY 41 40 97 W14G22 29.52R MANTEO CLOUDY 41 39 93 NW14G23 29.55R $$ NCZ045>047-081-094-103-104-242200- CENTRAL COAST CITY SKY/WX TMP DP RH WIND PRES REMARKS FRISCO CLOUDY 44 41 89 NW17G35 29.55R SWANQUARTER NOT AVBL $$ NCZ095-097-098-100-101-242200- SOUTHERN COAST CITY SKY/WX TMP DP RH WIND PRES REMARKS BEAUFORT CLOUDY 46 40 79 NW18 29.61R CEDAR ISLAND NOT AVBL JACKSONVILLE CLOUDY 47 39 74 NW13G22 29.64R PINEY ISLAND N/A N/A N/A N/A MISG 29.58R WILMINGTON CLOUDY 48 40 73 W14G23 29.66R $$ NCZ011>013-027>030-043-044-078>080-089-090>093-098-242200- COASTAL PLAIN CITY SKY/WX TMP DP RH WIND PRES REMARKS AHOSKIE CLOUDY 42 39 89 CALM 29.60R CLINTON CLOUDY 47 41 80 NW10G16 29.67R ELIZABETHTOWN CLOUDY 48 39 72 NW9 29.68R GOLDSBORO CLOUDY 43 43 100 W15 29.58S GREENVILLE CLOUDY 45 39 81 NW8 29.64R HAVELOCK CLOUDY 47 39 74 W15 29.62R KENANSVILLE CLOUDY 46 39 76 NW8G17 29.66R KINSTON CLOUDY 46 39 76 W10G16 29.64R NEW BERN CLOUDY 48 38 68 NW15G24 29.62R RICHLANDS CLOUDY 46 37 71 W10 29.65R ROCKY MOUNT PTSUNNY 46 39 76 W12 29.61R WASHINGTON CLOUDY 44 39 82 NW9 29.60R WHITEVILLE CLOUDY 47 40 76 W9 29.69R $$ AMZ130-135-150-152-154-156-158-170-250-252-270-ANZ085-086-088-633-658-670-242200- MARINE OBSERVATIONS STATION/POSITION TIME TEMP WIND PRES WAVE SWELL AIR SEA DIR/SP/G HT/PER HT/PER (UTC) (F) (DEG/KT/KT) (MB) (FT/S) (FT/S) CHESAPEAKE LIGHT 2000 39 290/ 26/ 30 999.0 64 E VA BEACH 2100 42 52 300/ 27/ 35 996.9 10/11 7/11 DUCK 2100 41 44 300/ 20/ 24 998.6 2 E DUCK 2100 44 N/A 4/12 3/12 10 NE DUCK 2100 45 N/A 6/11 3/11 OREGON INLET 2100 42 49 290/ 19/ 25 999.7 13E OREGON INLT 2100 46 N/A 10/11 7/11 HATTERAS CG 2100 46 58 300/ 25/ 30 1000.7 DIAMOND BUOY 2100 49 72 300/ 27/ 33 999.1 13/11 10/11 17 S OCRACOKE NOT AVBL CAPE LOOKOUT 2000 46 290/ 26/ 30 1001.3 BEAUFORT LAB 2100 46 52 310/ 9/ 17 1001.3 27 SE WRIGHTSVLE NOT AVBL 5 SE WRIGHTSVLE 2000 48 51 300/ 17/ 23 1003.3 225 S CAPE HAT 2009 69 73 280/ 31/ 39 1003.1 15/ 9 41 SE CHARLESTON 2100 56 70 280/ 21/ 27 1006.6 11/ 7 $$

USA.gov is the U.S. government's official web portal to all federal, state and local government web resources and services.